Date String (YYYY-MM-DD hh:mm:ss) UTC,Instrument flags,Ambient pressure (hPa),Sample flow (lpm),Bypass flow (lpm),Sample temperature (°C),Ambient temperature (°C),ASC tube jacket temperature (°C),LED temperature (°C),Box temperature (°C),Sample RH (%),Span deviation,Mass concentration (μg/m³),Mass concentration (μg/m³),Mass concentration (μg/m³)
DateTimeUTC,F1_M11,P_M11,Q1_M11,Q2_M11,T1_M11,T2_M11,T3_M11,T4_M11,T5_M11,U1_M11,ZSPAN_M11,X0_M11,X2_M11,X1_M11
2022-06-21 17:00:00,,0835.1,4.98,0.00,29.5,28.5,00.0,38.3,31.4,14.2,0000.0,0011.97,0003.31,0001.49
2022-06-21 17:01:00,,0835.1,5.01,0.00,29.6,28.6,00.0,38.3,31.5,14.2,0000.0,0011.29,0003.29,0001.49
2022-06-21 17:02:00,,0835.1,4.99,0.00,29.6,28.6,00.0,38.3,31.5,14.1,0000.0,0011.49,0003.25,0001.48
2022-06-21 17:03:00,,0835.1,5.00,0.00,29.6,28.7,00.0,38.4,31.5,14.1,0000.0,0011.03,0003.18,0001.47
2022-06-21 17:04:00,,0835.1,5.01,0.00,29.6,28.7,00.0,38.4,31.5,14.2,0000.0,0010.11,0003.14,0001.46
2022-06-21 17:05:00,,0835.1,5.00,0.00,29.7,28.8,00.0,38.4,31.6,14.2,0000.0,0010.21,0003.19,0001.47
2022-06-21 17:06:00,,0835.1,5.01,0.00,29.7,28.6,00.0,38.4,31.5,14.2,0000.0,0010.57,0003.21,0001.47
2022-06-21 17:07:00,,0835.1,4.99,0.00,29.6,27.7,00.0,38.3,31.4,14.2,0000.0,0011.35,0003.21,0001.47
2022-06-21 17:08:00,,0835.1,4.99,0.00,29.5,27.2,00.0,38.2,31.2,14.2,0000.0,0011.33,0003.17,0001.48
2022-06-21 17:09:00,,0835.1,5.00,0.00,29.5,27.2,00.0,38.2,31.2,14.3,0000.0,0011.10,0003.16,0001.49
2022-06-21 17:10:00,,0835.1,5.01,0.00,29.4,27.3,00.0,38.2,31.1,14.5,0000.0,0010.53,0003.14,0001.52
2022-06-21 17:11:00,,0835.1,5.00,0.00,29.4,27.4,00.0,38.2,31.1,14.4,0000.0,0010.08,0003.15,0001.54
2022-06-21 17:12:00,,0835.1,4.99,0.00,29.4,27.5,00.0,38.2,31.1,14.5,0000.0,0010.04,0003.20,0001.55
2022-06-21 17:13:00,,0835.1,5.00,0.00,29.4,27.7,00.0,38.2,31.2,14.5,0000.0,0009.87,0003.26,0001.57
2022-06-21 17:14:00,,0835.1,4.99,0.00,29.4,27.8,00.0,38.2,31.2,14.4,0000.0,0009.82,0003.34,0001.61
2022-06-21 17:15:00,,0835.1,5.01,0.00,29.4,28.0,00.0,38.2,31.2,14.4,0000.0,0010.46,0003.35,0001.64
2022-06-21 17:16:00,,0835.0,5.01,0.00,29.4,28.1,00.0,38.2,31.3,14.3,0000.0,0010.44,0003.36,0001.64
2022-06-21 17:17:00,,0835.0,5.00,0.00,29.4,28.2,00.0,38.2,31.3,14.3,0000.0,0010.20,0003.42,0001.64
2022-06-21 17:18:00,,0835.0,5.00,0.00,29.4,28.3,00.0,38.2,31.3,14.3,0000.0,0009.62,0003.45,0001.64
2022-06-21 17:19:00,,0835.0,5.00,0.00,29.4,28.3,00.0,38.2,31.3,14.3,0000.0,0010.01,0003.50,0001.63
2022-06-21 17:20:00,,0835.0,4.99,0.00,29.5,28.4,00.0,38.2,31.4,14.3,0000.0,0010.46,0003.54,0001.63
2022-06-21 17:21:00,,0835.0,5.00,0.00,29.5,28.5,00.0,38.2,31.4,14.3,0000.0,0010.67,0003.55,0001.62
2022-06-21 17:22:00,,0835.0,5.00,0.00,29.5,28.6,00.0,38.3,31.4,14.3,0000.0,0010.70,0003.55,0001.62
2022-06-21 17:23:00,,0834.9,5.00,0.00,29.5,28.6,00.0,38.3,31.5,14.3,0000.0,0010.71,0003.53,0001.62
2022-06-21 17:24:00,,0834.9,4.99,0.00,29.6,28.7,00.0,38.3,31.5,14.4,0000.0,0010.92,0003.50,0001.60
2022-06-21 17:25:00,,0835.0,5.02,0.00,29.6,28.7,00.0,38.3,31.5,14.4,0000.0,0010.69,0003.46,0001.59
2022-06-21 17:26:00,,0835.0,5.00,0.00,29.6,28.3,00.0,38.3,31.4,14.3,0000.0,0010.18,0003.50,0001.60
2022-06-21 17:27:00,,0835.0,5.00,0.00,29.5,27.4,00.0,38.2,31.2,14.3,0000.0,0010.19,0003.51,0001.62
2022-06-21 17:28:00,,0835.0,5.00,0.00,29.4,27.1,00.0,38.2,31.1,14.4,0000.0,0010.11,0003.49,0001.62
2022-06-21 17:29:00,,0835.0,5.00,0.00,29.4,27.1,00.0,38.2,31.0,14.4,0000.0,0011.07,0003.51,0001.63
2022-06-21 17:30:00,,0835.0,5.00,0.00,29.3,27.2,00.0,38.1,31.0,14.4,0000.0,0011.49,0003.51,0001.63
2022-06-21 17:31:00,,0835.0,4.99,0.00,29.3,27.3,00.0,38.1,31.0,14.5,0000.0,0011.79,0003.47,0001.62
2022-06-21 17:32:00,,0834.9,5.01,0.00,29.3,27.5,00.0,38.1,31.1,14.5,0000.0,0011.93,0003.46,0001.60
2022-06-21 17:33:00,,0834.9,5.01,0.00,29.3,27.6,00.0,38.1,31.1,14.5,0000.0,0012.51,0003.46,0001.59
2022-06-21 17:34:00,,0834.9,5.00,0.00,29.3,27.8,00.0,38.1,31.1,14.4,0000.0,0012.59,0003.48,0001.57
2022-06-21 17:35:00,,0834.9,5.00,0.00,29.3,27.9,00.0,38.1,31.2,14.4,0000.0,0012.24,0003.48,0001.58
2022-06-21 17:36:00,,0835.0,5.00,0.00,29.3,28.0,00.0,38.1,31.2,14.4,0000.0,0012.20,0003.46,0001.58
2022-06-21 17:37:00,,0834.9,5.00,0.00,29.3,28.2,00.0,38.1,31.2,14.4,0000.0,0012.29,0003.45,0001.56
2022-06-21 17:38:00,,0834.9,4.99,0.00,29.4,28.3,00.0,38.1,31.3,14.5,0000.0,0012.46,0003.42,0001.53
2022-06-21 17:39:00,,0835.0,5.00,0.00,29.4,28.3,00.0,38.1,31.3,14.5,0000.0,0012.60,0003.39,0001.52
2022-06-21 17:40:00,,0834.9,5.01,0.00,29.4,28.4,00.0,38.2,31.3,14.5,0000.0,0011.72,0003.39,0001.52
2022-06-21 17:41:00,,0834.9,5.00,0.00,29.4,28.5,00.0,38.2,31.4,14.4,0000.0,0010.75,0003.33,0001.51
2022-06-21 17:42:00,,0835.0,4.99,0.00,29.5,28.6,00.0,38.2,31.4,14.5,0000.0,0010.17,0003.35,0001.51
2022-06-21 17:43:00,,0835.0,5.01,0.00,29.5,28.6,00.0,38.2,31.4,14.4,0000.0,0010.41,0003.36,0001.52
2022-06-21 17:44:00,,0835.0,5.00,0.00,29.5,28.7,00.0,38.2,31.5,14.4,0000.0,0010.63,0003.33,0001.53
2022-06-21 17:45:00,,0834.9,4.99,0.00,29.5,28.4,00.0,38.2,31.4,14.3,0000.0,0010.85,0003.30,0001.53
2022-06-21 17:46:00,,0834.8,5.02,0.00,29.5,27.5,00.0,38.2,31.2,14.3,0000.0,0011.36,0003.25,0001.52
2022-06-21 17:47:00,,0834.9,5.00,0.00,29.4,27.1,00.0,38.1,31.1,14.4,0000.0,0011.96,0003.28,0001.53
2022-06-21 17:48:00,,0834.8,5.00,0.00,29.3,27.1,00.0,38.1,31.0,14.4,0000.0,0011.90,0003.28,0001.54
2022-06-21 17:49:00,,0834.9,5.00,0.00,29.3,27.2,00.0,38.1,31.0,14.6,0000.0,0011.56,0003.24,0001.55
2022-06-21 17:50:00,,0834.8,5.01,0.00,29.3,27.3,00.0,38.1,31.0,14.6,0000.0,0012.07,0003.27,0001.55
2022-06-21 17:51:00,,0834.8,5.00,0.00,29.3,27.5,00.0,38.1,31.0,14.6,0000.0,0012.03,0003.31,0001.55
2022-06-21 17:52:00,,0834.8,5.00,0.00,29.3,27.7,00.0,38.1,31.1,14.7,0000.0,0012.43,0003.38,0001.56
2022-06-21 17:53:00,,0834.8,5.00,0.00,29.3,27.8,00.0,38.1,31.1,14.7,0000.0,0012.49,0003.38,0001.56
2022-06-21 17:54:00,,0834.8,5.00,0.00,29.3,27.9,00.0,38.1,31.1,14.8,0000.0,0011.82,0003.38,0001.56
2022-06-21 17:55:00,,0834.8,5.00,0.00,29.3,28.1,00.0,38.1,31.2,14.8,0000.0,0011.66,0003.38,0001.56
2022-06-21 17:56:00,,0834.8,5.00,0.00,29.3,28.2,00.0,38.1,31.2,14.8,0000.0,0011.58,0003.42,0001.59
2022-06-21 17:57:00,,0834.9,4.99,0.00,29.3,28.3,00.0,38.1,31.3,14.7,0000.0,0011.16,0003.47,0001.60
2022-06-21 17:58:00,,0834.9,5.00,0.00,29.4,28.4,00.0,38.1,31.3,14.7,0000.0,0010.63,0003.47,0001.61
2022-06-21 17:59:00,,0834.8,5.01,0.00,29.4,28.4,00.0,38.1,31.3,14.7,0000.0,0010.54,0003.45,0001.61
